[[{"header":{"parameterUnit":"m.s-1","parameterCategory":1,"la1":30.2991,"la2":30.254,"lo1":-89.0895,"lo2":-89.0444,"dy":0.0017,"dx":0.0017,"nx":28,"ny":28,"refTime":"2024-12-02T03:00:00:Z","depth":0,"parameterNumber":2,"parameterNumberName":"U-component_of_WINDS"},"data":[0,0,0,0,0,0,0,0,0,0,0,0,0,0,0,0,0,0,0,0,0,0,0,0,0,0,0,0,0,0,0,0,0,0,0,0,0,0,0,0,0,0,0,0,0,0,0,0,0,0,0,0,0,0,0,0,0,0,-1.4061,-1.4061,0,-1.4051,-1.405,-1.405,-1.4007,-1.4006,-1.4005,-1.4004,-1.3995,-1.3995,-1.3996,0,0,0,0,0,0,0,0,0,0,0,0,0,-1.4045,-1.4046,-1.4061,-1.4061,-1.4061,-1.4051,-1.405,-1.405,-1.4007,-1.4006,-1.4005,-1.4004,-1.3995,-1.3995,-1.3996,0,0,0,0,0,0,0,0,0,0,0,0,0,-1.4045,-1.4046,-1.4061,-1.4038,-1.4036,-1.4051,-1.405,-1.405,-1.4008,-1.4006,-1.4005,-1.4003,-1.3994,-1.3995,-1.3996,-1.4033,0,0,-1.3999,-1.4,0,0,0,0,0,0,0,0,-1.4045,-1.4046,-1.4042,-1.404,-1.4037,-1.4029,-1.4041,-1.4044,-1.4008,-1.4018,-1.4004,-1.4002,-1.4007,-1.4007,-1.4009,-1.4032,-1.4032,-1.4,-1.4,-1.4001,-1.4001,0,0,0,0,0,0,0,-1.4045,-1.4046,-1.4057,-1.4042,-1.4039,-1.4029,-1.4027,-1.4042,-1.4021,-1.4017,-1.4014,-1.4013,-1.4006,-1.4008,-1.4008,-1.4032,-1.3999,-1.4,-1.4001,-1.4001,-1.4085,-1.4086,0,0,0,0,0,0,-1.4048,-1.4046,-1.4057,-1.4057,-1.4038,-1.403,-1.4028,-1.4033,-1.4021,-1.4018,-1.4015,-1.4011,-1.4007,-1.4007,-1.4008,-1.405,-1.4001,-1.4002,-1.4002,-1.4083,-1.4085,-1.4087,0,0,0,0,0,0,-1.4048,-1.405,-1.4058,-1.4051,-1.4051,-1.4032,-1.4038,-1.4034,-1.4035,-1.4019,-1.4015,-1.402,-1.4005,-1.4006,-1.4027,-1.4049,-1.4002,-1.4003,-1.4081,-1.4084,-1.4086,-1.4135,0,0,0,0,0,0,-1.4048,-1.405,-1.4063,-1.4051,-1.4051,-1.4077,-1.4039,-1.4034,-1.4037,-1.4033,-1.4023,-1.402,-1.4004,-1.4025,-1.4028,-1.4049,-1.4004,-1.4079,-1.4083,-1.4085,-1.4131,-1.4138,-1.4145,0,0,0,0,0,-1.4047,-1.4078,-1.4064,-1.4066,-1.4068,-1.4078,-1.4078,-1.4059,-1.4039,-1.4053,-1.4042,-1.4021,-1.4046,-1.4028,-1.403,-1.4053,-1.4078,-1.4082,-1.4085,-1.4128,-1.4137,-1.4145,0,0,0,0,0,0,-1.4094,-1.4076,-1.4061,-1.4088,-1.4085,-1.4071,-1.4088,-1.4069,-1.4072,-1.4068,-1.4044,-1.4042,-1.4067,-1.4061,-1.4042,-1.4087,-1.4058,-1.4063,-1.409,-1.4098,-1.4105,-1.4107,-1.4005,0,0,0,0,0,-1.4107,-1.4117,-1.41,-1.4126,-1.4125,-1.4107,-1.4111,-1.4096,-1.4092,-1.4091,-1.4082,-1.4079,-1.4086,-1.4092,-1.4098,-1.4129,-1.4127,-1.4146,-1.4153,-1.4159,-1.4163,-1.418,-1.4188,-1.4099,-1.4099,-1.4099,0,0,-1.4135,-1.4126,-1.4134,-1.4135,-1.4131,-1.4142,-1.4106,-1.4119,-1.4128,-1.4093,-1.4112,-1.4105,-1.4101,-1.4127,-1.4139,-1.4124,-1.4187,-1.4163,-1.4168,-1.4169,-1.4184,-1.4193,-1.4201,-1.4101,-1.4101,-1.41,0,0,-1.4191,-1.4185,-1.4206,-1.4203,-1.4197,-1.4184,-1.4189,-1.4178,-1.4172,-1.4191,-1.4165,-1.4174,-1.4187,-1.4185,-1.4186,-1.4241,-1.4222,-1.4243,-1.428,-1.4297,-1.4304,-1.431,-1.433,-1.4338,-1.4247,-1.4247,-1.4248,0,-1.4227,-1.4242,-1.422,-1.4234,-1.4236,-1.4204,-1.4225,-1.4223,-1.422,-1.4222,-1.4205,-1.422,-1.4215,-1.4241,-1.4254,-1.4255,-1.4261,-1.4245,-1.4304,-1.431,-1.4316,-1.4335,-1.4343,-1.425,-1.425,-1.425,-1.4249,0,-1.4287,-1.4298,-1.4315,-1.4312,-1.4315,-1.4334,-1.4314,-1.432,-1.4304,-1.4294,-1.4313,-1.4305,-1.4309,-1.4314,-1.4299,-1.4338,-1.4329,-1.4308,-1.4279,-1.4327,-1.4345,-1.4352,-1.4254,-1.4253,-1.4252,-1.4252,0,0,-1.4374,-1.4357,-1.4364,-1.4362,-1.4353,-1.4361,-1.4378,-1.4381,-1.4387,-1.4385,-1.4399,-1.441,-1.4391,-1.4392,-1.4377,-1.4391,-1.4436,-1.4369,-1.4368,-1.4383,-1.4479,-1.4496,-1.4505,-1.4423,-1.4424,-1.4425,-1.448,0,-1.4429,-1.4456,-1.4435,-1.4466,-1.4476,-1.4446,-1.446,-1.4456,-1.4446,-1.4454,-1.4443,-1.4451,-1.4425,-1.4425,-1.4438,-1.4428,-1.4455,-1.4423,-1.4436,-1.4437,-1.444,-1.4514,-1.4531,-1.4583,-1.4487,-1.4488,-1.4489,0,-1.4497,-1.4497,-1.4529,-1.4518,-1.4521,-1.4534,-1.4536,-1.4543,-1.4538,-1.4529,-1.453,-1.4511,-1.4526,-1.4496,-1.4518,-1.4497,-1.4501,-1.4496,-1.4498,-1.4499,-1.4467,-1.4519,-1.46,-1.4608,-1.4499,-1.4498,-1.4498,0,-1.4558,-1.4567,-1.4587,-1.4587,-1.4573,-1.4584,-1.4579,-1.4572,-1.4575,-1.4576,-1.4578,-1.4581,-1.4583,-1.4586,-1.4568,-1.4548,-1.4592,-1.4561,-1.4587,-1.4587,-1.4599,-1.4599,-1.4683,-1.4599,-1.4599,-1.4599,-1.4599,0,-1.4623,-1.4644,-1.4615,-1.4628,-1.465,-1.4626,-1.4649,-1.4641,-1.4635,-1.4646,-1.4619,-1.463,-1.4605,-1.4614,-1.4599,-1.462,-1.4621,-1.4615,-1.4612,-1.4619,-1.4619,-1.4622,-1.4618,-1.4601,-1.46,-1.46,-1.46,0,-1.4696,-1.4678,-1.4698,-1.4683,-1.468,-1.4697,-1.4685,-1.4696,-1.4684,-1.4698,-1.47,-1.4681,-1.469,-1.4671,-1.4677,-1.4668,-1.4697,-1.4687,-1.4699,-1.4697,-1.4724,-1.4723,-1.4814,-1.4826,-1.4733,-1.4734,-1.4735,0,-1.4739,-1.4754,-1.4741,-1.4746,-1.4742,-1.4751,-1.4753,-1.473,-1.4734,-1.4729,-1.4742,-1.4747,-1.4751,-1.4766,-1.4753,-1.4758,-1.4748,-1.478,-1.4749,-1.4756,-1.475,-1.475,-1.4752,-1.4787,-1.4788,-1.4789,-1.479,0,-1.4818,-1.4807,-1.4812,-1.4814,-1.4818,-1.4818,-1.4817,-1.4823,-1.4798,-1.4804,-1.4812,-1.4814,-1.482,-1.4827,-1.4828,-1.4823,-1.4803,-1.4799,-1.4806,-1.4814,-1.4821,-1.4819,-1.4718,-1.4798,-1.4797,-1.4797,-1.4796,-1.4796,-1.4878,-1.489,-1.4883,-1.4889,-1.4885,-1.4884,-1.4894,-1.4883,-1.4889,-1.4891,-1.4877,-1.4888,-1.4882,-1.4882,-1.4879,-1.4888,-1.4874,-1.4883,-1.4885,-1.4888,-1.4893,-1.4818,-1.4888,-1.4888,-1.4887,-1.4887,-1.4887,0,-1.4956,-1.4949,-1.4955,-1.4954,-1.4959,-1.4937,-1.4935,-1.4941,-1.495,-1.4946,-1.495,-1.496,-1.4966,-1.4953,-1.4957,-1.4967,-1.4957,-1.4969,-1.4969,-1.4968,-1.4905,-1.49,-1.4976,-1.4976,-1.4976,-1.4976,-1.4976,-1.4976,-1.4997,-1.5017,-1.5006,-1.5024,-1.5017,-1.5027,-1.5027,-1.5027,-1.5023,-1.5035,-1.5039,-1.503,-1.5023,-1.5026,-1.5031,-1.5027,-1.5031,-1.5046,-1.5039,-1.4981,-1.4972,-1.4964,-1.4959,-1.5046,-1.5046,-1.5101,-1.5101,-1.5102]},{"header":{"parameterUnit":"m.s-1","parameterCategory":1,"la1":30.2991,"la2":30.254,"lo1":-89.0895,"lo2":-89.0444,"dy":0.0017,"dx":0.0017,"nx":28,"ny":28,"refTime":"2024-12-02T03:00:00:Z","depth":0,"parameterNumber":3,"parameterNumberName":"V-component_of_WINDS"},"data":[0,0,0,0,0,0,0,0,0,0,0,0,0,0,0,0,0,0,0,0,0,0,0,0,0,0,0,0,0,0,0,0,0,0,0,0,0,0,0,0,0,0,0,0,0,0,0,0,0,0,0,0,0,0,0,0,0,0,-4.4414,-4.4415,0,-4.4473,-4.4473,-4.4474,-4.4449,-4.4448,-4.4447,-4.4445,-4.4501,-4.4504,-4.4506,0,0,0,0,0,0,0,0,0,0,0,0,0,-4.4277,-4.428,-4.4414,-4.4415,-4.4416,-4.4473,-4.4473,-4.4474,-4.445,-4.4448,-4.4446,-4.4445,-4.45,-4.4503,-4.4507,0,0,0,0,0,0,0,0,0,0,0,0,0,-4.4336,-4.4281,-4.4414,-4.441,-4.4411,-4.4472,-4.4473,-4.4474,-4.445,-4.4448,-4.4446,-4.4444,-4.4499,-4.4503,-4.4507,-4.4575,0,0,-4.452,-4.4522,0,0,0,0,0,0,0,0,-4.4333,-4.4341,-4.441,-4.4411,-4.4411,-4.4452,-4.4446,-4.4508,-4.4451,-4.4435,-4.4445,-4.4443,-4.4486,-4.4491,-4.4507,-4.4577,-4.458,-4.452,-4.4523,-4.4525,-4.4526,0,0,0,0,0,0,0,-4.4329,-4.4338,-4.4437,-4.4411,-4.4412,-4.4404,-4.4411,-4.4457,-4.4471,-4.4436,-4.4434,-4.4442,-4.4486,-4.4503,-4.4508,-4.4581,-4.452,-4.4524,-4.4526,-4.4528,-4.4711,-4.4713,0,0,0,0,0,0,-4.4325,-4.4335,-4.4435,-4.4439,-4.4366,-4.4409,-4.4415,-4.4441,-4.4471,-4.4473,-4.4444,-4.4441,-4.4497,-4.4503,-4.451,-4.4592,-4.4525,-4.4529,-4.4531,-4.4709,-4.4712,-4.4714,0,0,0,0,0,0,-4.4322,-4.4334,-4.4433,-4.4387,-4.4399,-4.4413,-4.4442,-4.4443,-4.446,-4.4477,-4.4479,-4.4459,-4.4495,-4.4504,-4.4559,-4.4594,-4.453,-4.4534,-4.4706,-4.471,-4.4713,-4.4757,0,0,0,0,0,0,-4.4318,-4.4333,-4.436,-4.4388,-4.4401,-4.4483,-4.4444,-4.4446,-4.4468,-4.4464,-4.4491,-4.4493,-4.4494,-4.4553,-4.4564,-4.4598,-4.4537,-4.4703,-4.4708,-4.4712,-4.4752,-4.4761,-4.4769,0,0,0,0,0,-4.4314,-4.4369,-4.4362,-4.4374,-4.4435,-4.4485,-4.4493,-4.4494,-4.447,-4.4497,-4.4508,-4.4493,-4.4588,-4.4559,-4.4571,-4.4607,-4.4701,-4.4706,-4.4711,-4.4748,-4.4759,-4.4769,0,0,0,0,0,0,-4.4343,-4.4372,-4.4365,-4.4431,-4.4456,-4.4481,-4.4514,-4.4505,-4.4536,-4.4531,-4.453,-4.4536,-4.4594,-4.4605,-4.4573,-4.4674,-4.4641,-4.4648,-4.4665,-4.4676,-4.4684,-4.468,-4.4541,0,0,0,0,0,-4.4358,-4.4397,-4.442,-4.4476,-4.4489,-4.45,-4.4521,-4.452,-4.4545,-4.4555,-4.457,-4.4594,-4.463,-4.4653,-4.4686,-4.4753,-4.4759,-4.4784,-4.4792,-4.4799,-4.4806,-4.4844,-4.4855,-4.4731,-4.4731,-4.4731,0,0,-4.4387,-4.4408,-4.4433,-4.4482,-4.4501,-4.4542,-4.4509,-4.4552,-4.4581,-4.4561,-4.4616,-4.4628,-4.4654,-4.4716,-4.4744,-4.4728,-4.4842,-4.4806,-4.4811,-4.4815,-4.485,-4.4862,-4.4872,-4.4735,-4.4734,-4.4734,0,0,-4.4462,-4.4482,-4.4532,-4.4552,-4.4583,-4.459,-4.4601,-4.4628,-4.4636,-4.4691,-4.4677,-4.4711,-4.4772,-4.4792,-4.481,-4.4894,-4.4882,-4.4905,-4.4949,-4.4985,-4.4995,-4.5004,-4.5035,-4.5046,-4.4912,-4.4912,-4.4912,0,-4.4495,-4.4556,-4.4558,-4.4603,-4.4625,-4.4611,-4.4661,-4.468,-4.4719,-4.4734,-4.4715,-4.4793,-4.4809,-4.4877,-4.4898,-4.4912,-4.4926,-4.4902,-4.4994,-4.5003,-4.5011,-4.504,-4.5052,-4.4914,-4.4914,-4.4914,-4.4914,0,-4.4596,-4.4638,-4.4674,-4.4715,-4.4741,-4.4788,-4.4796,-4.4822,-4.4819,-4.4827,-4.4883,-4.4903,-4.4941,-4.4957,-4.4952,-4.5024,-4.5013,-4.4994,-4.496,-4.5025,-4.5053,-4.5064,-4.4918,-4.4917,-4.4917,-4.4916,0,0,-4.4691,-4.4733,-4.4746,-4.4765,-4.4798,-4.4831,-4.4877,-4.4916,-4.4939,-4.4966,-4.5005,-4.5057,-4.5041,-4.5061,-4.5059,-4.5091,-4.5158,-4.5069,-4.5069,-4.5086,-4.5239,-4.5254,-4.5267,-4.5149,-4.5152,-4.5153,-4.5237,0,-4.477,-4.4854,-4.4856,-4.4932,-4.4972,-4.4959,-4.5,-4.5024,-4.5033,-4.5067,-4.5076,-4.5114,-4.5089,-4.5101,-4.5132,-4.5143,-4.5189,-4.5137,-4.5186,-4.5187,-4.5181,-4.5281,-4.5297,-4.5375,-4.5247,-4.5249,-4.5251,0,-4.4873,-4.4906,-4.4987,-4.5016,-4.5032,-4.5069,-4.5105,-4.5138,-4.5165,-4.5169,-4.5193,-4.5187,-4.5234,-4.5198,-4.5262,-4.5227,-4.5247,-4.5255,-4.5258,-4.5264,-4.5224,-4.529,-4.5399,-4.5412,-4.5267,-4.5266,-4.5265,0,-4.4936,-4.5001,-4.5058,-4.5074,-4.5108,-4.5135,-4.515,-4.5175,-4.5199,-4.523,-4.5245,-4.528,-4.53,-4.5327,-4.533,-4.5304,-4.5395,-4.5359,-4.54,-4.54,-4.5421,-4.542,-4.5536,-4.5432,-4.5431,-4.5431,-4.5431,0,-4.5025,-4.5075,-4.5087,-4.5122,-4.5178,-4.518,-4.5235,-4.5248,-4.527,-4.5307,-4.5297,-4.5331,-4.5333,-4.5368,-4.537,-4.5424,-4.5432,-4.5437,-4.5437,-4.5439,-4.5438,-4.5452,-4.5447,-4.5434,-4.5434,-4.5433,-4.5432,0,-4.5105,-4.5115,-4.5177,-4.5205,-4.5214,-4.5254,-4.5277,-4.531,-4.5319,-4.5366,-4.5376,-4.539,-4.543,-4.5436,-4.5483,-4.5485,-4.555,-4.5543,-4.5541,-4.5541,-4.5582,-4.5579,-4.5712,-4.573,-4.5613,-4.5614,-4.5615,0,-4.5161,-4.52,-4.5233,-4.5258,-4.5276,-4.5316,-4.534,-4.5343,-4.5369,-4.5404,-4.5433,-4.5473,-4.5506,-4.5571,-4.5584,-4.562,-4.5615,-4.566,-4.5621,-4.5622,-4.5618,-4.5616,-4.562,-4.5668,-4.5669,-4.567,-4.5671,0,-4.5261,-4.5265,-4.5302,-4.5341,-4.5371,-4.5402,-4.543,-4.5451,-4.5457,-4.5487,-4.553,-4.5555,-4.5604,-4.5645,-4.5681,-4.5695,-4.5684,-4.5683,-4.5695,-4.5697,-4.5695,-4.5698,-4.5563,-4.568,-4.5679,-4.5678,-4.5678,-4.5678,-4.5332,-4.5367,-4.5396,-4.5438,-4.546,-4.5487,-4.5521,-4.5534,-4.5571,-4.5613,-4.5612,-4.5659,-4.5685,-4.5732,-4.5749,-4.5785,-4.5771,-4.5787,-4.5792,-4.5796,-4.5801,-4.5689,-4.5792,-4.5791,-4.5791,-4.5791,-4.5791,0,-4.5432,-4.5451,-4.5489,-4.5531,-4.5564,-4.5553,-4.5584,-4.5612,-4.5654,-4.568,-4.5713,-4.5763,-4.5802,-4.5818,-4.5856,-4.5882,-4.5878,-4.5892,-4.5891,-4.5894,-4.5811,-4.5798,-4.5895,-4.5895,-4.5895,-4.5895,-4.5895,-4.5895,-4.5489,-4.5547,-4.5554,-4.5623,-4.5641,-4.5689,-4.5708,-4.5733,-4.5754,-4.581,-4.5844,-4.5855,-4.5877,-4.5917,-4.5952,-4.5955,-4.597,-4.5987,-4.5988,-4.5911,-4.59,-4.589,-4.5878,-4.599,-4.599,-4.6069,-4.607,-4.607]}]]